IRIDIUM 33 DEB, 38017

Orbit data source: Space-Track

IRIDIUM 33 DEB, 38017 is space debris in LEO originally from a launch on Sun, 14 Sep 1997 UTC launched from the Tyuratam Missile And Space Complex (TTMTR). The debris from Iridium 33, an American commercial communications satellite, has been tracked extensively since its accidental collision with the defunct Russian satellite Cosmos 2251 in 2009. This event, occurring at high speed in low Earth orbit (LEO), generated thousands of pieces of space debris, significantly increasing the risk of further collisions. The Iridium 33 debris cloud has impacted space traffic management and orbital debris mitigation strategies, making it a subject of ongoing study in space situational awareness.

Loading next visibility...
Identifier
38017, 1997-051YD
Orbit
LEO
Country
Flag of USUS
Related business
Manufacturer
Unknown
Mission
Spacecraft
Bus & Motor
Unknown
Mass
Unknown
Launch date (UTC)
1997-09-14 (29 years ago)
Launch vehicle
Unknown
Launch site
Tyuratam Missile And Space Complex (TTMTR)
Object type
Payload
Rocket body
Debris
Shape & HBR
Unknown shape, 0.1 m
Radar Cross Section
Small (<0.1 m²)

Expand to show TLE details & history
Last TLE update: 1 day ago

TLE from 1 day ago
0 IRIDIUM 33 DEB
1 38017U 97051YD  26104.27883166  .00003063  00000-0  71006-3 0  9994
2 38017  86.3364 112.7639 0088458  58.8934 302.0913 14.52344387631795
Epoch: 2026-04-14T06:41Z
TLE epoch observation values (Epoch: 2026-04-14T06:41:31.055Z)
Latitude
0.00002°
Longitude
169.92714°
Altitude
688.124 km
Speed
7.53 km/s
True Right ascension
07h 31m 03s
True Declination
0° 00' 00"
Sunlit
Object was in daylight at epoch
Visualization orbit readout
Latitude
Unknown
Longitude
Unknown
Altitude
Unknown
Speed
Unknown
Apparent Right ascension
Unknown
Apparent Declination
Unknown
Sunlit
N/A
Visualization observer readout
Local Sidereal Time
20:25:42
Azimuth
Unknown
Elevation
Unknown
Doppler factor
Unknown
Orbital elements
Apogee altitude
777.686 km
Perigee altitude
652.198 km
Semi-major axis
7,093.079 km
Eccentricity
0.00885
Inclination
86.3364°
RAAN
112.7639°
Arg. of periapsis
58.8934°
True anomaly
301.22749°
Mean anomaly
302.0913°
Eccentric anomaly
301.6599°
Mean motion
3.63321 °/min
Orbital period
99.09 mins
BSTAR
0.00071006
Loading maneuver chart data...
Computing Atmospheric mass density...

Documentation

Showing up to 5 results
|